Home > Weather > Glasgow > Past weeks

Flag for United Kingdom Weather for the Past 2 Weeks in Glasgow, Scotland, United Kingdom

Now
50 °F

Partly sunny.


Feels Like: 45 °F
Forecast: 40 / 53 °F
Wind: 13 mph from West

Location: Glasgow Airport

Current Time: Apr 30, 2016 at 12:44:44 PM

Latest Report: Apr 30, 2016 at 12:20 PM


Visibility: N/A

Pressure: 30.07 "Hg

Humidity: 58%

Dew Point: 36 °F

Location of GlasgowLocation

Historic Weather in Glasgow — Graph

°F

Glasgow Temperature Yesterday

Maximum temperature yesterday: 52 °F (at 5:20 PM)
Minimum temperature yesterday: 34 °F (at 11:50 PM)
Average temperature yesterday: 43 °F

High & Low Weather Summary for the Past Weeks

 TemperatureHumidityPressure
High64 °F (Apr 21, 2:20 PM)100% (Apr 21, 5:50 AM)30.48 "Hg (Apr 21, 5:50 AM)
Low25 °F (Apr 27, 5:20 AM)34% (Apr 21, 2:20 PM)29.53 "Hg (Apr 28, 4:50 PM)
Average44 °F68%30.02 "Hg
* Reported Apr 15 11:20 AM — Apr 30 11:20 AM, Glasgow, Weather by CustomWeather, © 2016

Note: Actual official high and low records may vary slightly from our data, if they occured in-between our weather recording intervals... More about our weather records

Advertising

Glasgow Weather History for the Previous 24 Hours

Scroll right to see more
 ConditionsComfort  
Time TempWeatherWind HumidityBarometerVisibility
11:20 AM
Sat, Apr 30
46 °FPartly sunny.5 mph66%30.07 "HgN/A
10:50 AM45 °FSprinkles. Broken clouds.13 mph71%30.07 "HgN/A
10:20 AM48 °FPartly sunny.7 mph58%30.07 "HgN/A
9:20 AM46 °FPartly sunny.6 mph62%30.04 "HgN/A
8:50 AM46 °FPartly sunny.7 mph66%30.04 "HgN/A
8:20 AM45 °FBroken clouds.7 mph76%30.04 "HgN/A
7:50 AM43 °FPassing clouds.5 mph81%30.04 "HgN/A
7:20 AM41 °FQuite cool.7 mph87%30.04 "HgN/A
6:50 AM37 °FChilly.7 mph87%30.01 "HgN/A
6:20 AM36 °FPassing clouds.5 mph93%30.01 "HgN/A
5:50 AM34 °FChilly.6 mph93%30.01 "HgN/A
5:20 AM34 °FChilly.9 mph93%30.01 "HgN/A
4:50 AM36 °FChilly.7 mph87%30.01 "HgN/A
4:20 AM36 °FChilly.6 mph87%29.98 "HgN/A
3:50 AM36 °FChilly.7 mph87%29.98 "HgN/A
3:20 AM36 °FChilly.7 mph87%29.98 "HgN/A
2:50 AM34 °FChilly.5 mph87%29.98 "HgN/A
2:20 AM32 °FChilly.7 mph93%29.98 "HgN/A
1:50 AM34 °FChilly.5 mph93%29.98 "HgN/A
1:20 AM34 °FChilly.8 mph87%29.95 "HgN/A
12:50 AM34 °FChilly.8 mph93%29.95 "HgN/A
12:20 AM34 °FChilly.6 mph87%29.95 "HgN/A
11:50 PM
Fri, Apr 29
34 °FChilly.5 mph87%29.95 "HgN/A
11:20 PM36 °FChilly.9 mph81%29.95 "HgN/A
10:50 PM37 °FChilly.6 mph75%29.92 "HgN/A
10:20 PM41 °FQuite cool.8 mph66%29.92 "HgN/A
9:50 PM43 °FPassing clouds.8 mph66%29.92 "HgN/A
9:20 PM43 °FPassing clouds.9 mph66%29.92 "HgN/A
8:50 PM45 °FScattered clouds.10 mph61%29.89 "HgN/A
8:20 PM46 °FScattered clouds.10 mph62%29.89 "HgN/A
7:50 PM48 °FScattered showers. Scattered clouds.7 mph54%29.86 "HgN/A
7:20 PM48 °FCool.7 mph50%29.86 "HgN/A
6:50 PM48 °FCool.8 mph50%29.86 "HgN/A
6:20 PM48 °FCool.12 mph46%29.86 "HgN/A
5:50 PM48 °FCool.12 mph46%29.83 "HgN/A
5:20 PM52 °FPassing clouds.14 mph44%29.83 "HgN/A
4:50 PM50 °FCool.15 mph47%29.83 "HgN/A
4:20 PM50 °FPassing clouds.16 mph47%29.83 "HgN/A
3:50 PM48 °FCool.14 mph50%29.80 "HgN/A
3:20 PM48 °FPartly sunny.14 mph54%29.80 "HgN/A
2:50 PM48 °FPartly sunny.15 mph50%29.80 "HgN/A
2:20 PM48 °FPartly sunny.9 mph54%29.80 "HgN/A
1:50 PM48 °FPartly sunny.10 mph54%29.77 "HgN/A
1:20 PM48 °FPartly sunny.14 mph54%29.77 "HgN/A
12:50 PM48 °FPartly sunny.15 mph54%29.74 "HgN/A
12:20 PM46 °FPassing clouds.16 mph57%29.74 "HgN/A
Weather by CustomWeather, © 2016

See weather overviewHow to use our weather pages